This is the latest recevied weather packets stored in our database for station/object FW0690. If no packets are shown the sender has not sent any weather packets the latest 10 day(s).
| Time | Temp. | Humidity | Pressure | Rain* | Wind** | Luminosity | Snow |
|---|---|---|---|---|---|---|---|
| 1777550192 | 5.56° C | 75% | 1022.3 hPa | - | - | 14 W/m² | - |
| 1777549832 | 5.56° C | 74% | 1022.3 hPa | - | - | 13 W/m² | - |
| 1777549472 | 5.56° C | 74% | 1022.4 hPa | - | - | 13 W/m² | - |
| 1777549112 | 5.56° C | 74% | 1022.3 hPa | - | - | 12 W/m² | - |
| 1777548752 | 5.56° C | 74% | 1022.2 hPa | - | - | 11 W/m² | - |
| 1777548392 | 5.56° C | 74% | 1022.3 hPa | - | - | 12 W/m² | - |
| 1777548032 | 5.56° C | 74% | 1022.2 hPa | - | - | 10 W/m² | - |
| 1777547672 | 5.56° C | 74% | 1022.3 hPa | - | - | 9 W/m² | - |
| 1777547312 | 5.56° C | 74% | 1022.2 hPa | - | - | 12 W/m² | - |
| 1777546952 | 5.56° C | 74% | 1022.2 hPa | - | - | 16 W/m² | - |
| 1777546592 | 5.56° C | 74% | 1022.1 hPa | - | - | 11 W/m² | - |
| 1777546232 | 5.56° C | 74% | 1022.1 hPa | - | - | 12 W/m² | - |
| 1777545872 | 5.56° C | 74% | 1022.1 hPa | - | - | 13 W/m² | - |
| 1777545512 | 5.56° C | 74% | 1022.1 hPa | - | - | 12 W/m² | - |
| 1777545152 | 5.56° C | 74% | 1022 hPa | - | - | 13 W/m² | - |
| 1777544792 | 5.56° C | 74% | 1022.1 hPa | - | - | 11 W/m² | - |
| 1777544432 | 5.56° C | 74% | 1022 hPa | - | - | 13 W/m² | - |
| 1777544072 | 5.56° C | 74% | 1022 hPa | - | - | 12 W/m² | - |
| 1777543712 | 5.56° C | 74% | 1021.9 hPa | - | - | 13 W/m² | - |
| 1777543352 | 5.56° C | 74% | 1022 hPa | - | - | 11 W/m² | - |
| 1777542992 | 5.56° C | 74% | 1021.9 hPa | - | - | 13 W/m² | - |
| 1777542632 | 5.56° C | 74% | 1022 hPa | - | - | 16 W/m² | - |
| 1777542272 | 5.56° C | 74% | 1021.8 hPa | - | - | 15 W/m² | - |
| 1777541912 | 5° C | 74% | 1022 hPa | - | - | 16 W/m² | - |
| 1777541553 | 5° C | 73% | 1021.8 hPa | - | - | 13 W/m² | - |
* Rain since midnight (hover to see other rain measurements)
** Current wind speed in m/s (hover to see current wind gust speed)